カタログに戻る

STARLINK-32299

運用中通信VLEO
NORAD 61702·PAYLOAD·🇺🇸 United States

打ち上げ Oct 30, 2024 から Vandenberg Space Force Base

Loading…

次のパス (今後24時間)

TLE

最新Source: CelesTrak SupGP

元期: Sep 15, 2026, 02:17 UTC

1 61702C 24195R   26258.09562500  .00070894  00000+0  20951-2 0  2581
2 61702  53.1593 351.2072 0001196  88.5199 217.4348 15.34347121    12

AllMySatでSTARLINK-32299をリアルタイム追跡

Download on the App Store